When you browse on this site, cookies collect data to enhance your experience and personalize the content and advertising you see.
Visit our Privacy Policy to learn more. By continuing to use the site, you agree to this use of cookies and data.
  • In Austria
  • List of Countries
  • For 7 days
  • Water Temperature
  • Satellite Maps
  • Weather Map
  • News
  • Weather Widgets
  • user-avatar
    Login

    Hourly Weather Rogozino

    Today, 20 February, Wednesday

    Time Temperature Precipitation Wind Pressure Humidity
    00:00 0°C° 0.1 mm 4 mps 740 mmHg 91%
    01:00 0°C° 0.1 mm 4 mps 739 mmHg 91%
    02:00 0°C° 0.1 mm 4 mps 739 mmHg 91%
    03:00 0°C° 0.2 mm 4 mps 739 mmHg 91%
    04:00 0°C° 0.2 mm 4 mps 739 mmHg 91%
    05:00 0°C° 0.2 mm 4 mps 738 mmHg 91%
    06:00 0°C° 0.1 mm 4 mps 738 mmHg 91%
    07:00 0°C° 0.1 mm 4 mps 738 mmHg 91%
    08:00 0°C° 0.1 mm 4 mps 738 mmHg 90%
    09:00 0°C° 0.1 mm 4 mps 738 mmHg 89%
    10:00 +1°C° 0.1 mm 4 mps 738 mmHg 87%
    11:00 +1°C° 0.1 mm 4 mps 737 mmHg 85%
    12:00 +1°C° 0.3 mm 4 mps 737 mmHg 85%
    13:00 +1°C° 0.3 mm 5 mps 737 mmHg 84%
    14:00 +1°C° 0.3 mm 5 mps 736 mmHg 84%
    15:00 +1°C° 0.5 mm 5 mps 736 mmHg 85%
    16:00 +1°C° 0.5 mm 5 mps 736 mmHg 86%
    17:00 0°C° 0.5 mm 4 mps 736 mmHg 87%
    18:00 -1°C° 0.2 mm 5 mps 736 mmHg 83%
    19:00 -2°C° 0.2 mm 5 mps 737 mmHg 79%
    20:00 -4°C° 0.2 mm 5 mps 737 mmHg 76%
    21:00 -4°C° 0.2 mm 5 mps 738 mmHg 77%
    22:00 -5°C° 0.2 mm 6 mps 738 mmHg 79%
    23:00 -5°C° 0.2 mm 6 mps 738 mmHg 80%

    Tomorrow, 21 February, Thursday

    Time Temperature Precipitation Wind Pressure Humidity
    00:00 -5°C° 0.2 mm 6 mps 739 mmHg 79%
    01:00 -6°C° 0.2 mm 6 mps 740 mmHg 78%
    02:00 -6°C° 0.2 mm 6 mps 740 mmHg 77%
    03:00 -6°C° 0.1 mm 6 mps 741 mmHg 76%
    04:00 -6°C° 0.1 mm 6 mps 741 mmHg 74%
    05:00 -8°C° 0.1 mm 7 mps 741 mmHg 73%
    06:00 -8°C° 0.1 mm 7 mps 742 mmHg 72%
    07:00 -8°C° 0.1 mm 7 mps 743 mmHg 72%
    08:00 -9°C° 0.1 mm 7 mps 744 mmHg 72%
    09:00 -9°C° 0.1 mm 7 mps 745 mmHg 71%
    10:00 -8°C° 0.1 mm 7 mps 746 mmHg 70%
    11:00 -8°C° 0.1 mm 7 mps 746 mmHg 68%
    12:00 -8°C° 0.1 mm 6 mps 747 mmHg 67%
    13:00 -8°C° 0.1 mm 6 mps 748 mmHg 66%
    14:00 -8°C° 0.1 mm 6 mps 748 mmHg 64%
    15:00 -9°C° 0 mm 6 mps 749 mmHg 65%
    16:00 -10°C° 0 mm 6 mps 750 mmHg 66%
    17:00 -10°C° 0 mm 5 mps 750 mmHg 67%
    18:00 -11°C° 0 mm 5 mps 751 mmHg 67%
    19:00 -11°C° 0 mm 5 mps 752 mmHg 68%
    20:00 -11°C° 0 mm 5 mps 753 mmHg 68%
    21:00 -12°C° 0 mm 5 mps 753 mmHg 68%
    22:00 -12°C° 0 mm 5 mps 754 mmHg 68%
    23:00 -12°C° 0 mm 5 mps 754 mmHg 68%

    Day after tomorrow, 22 February, Friday

    Time Temperature Precipitation Wind Pressure Humidity
    00:00 -13°C° 0 mm 5 mps 755 mmHg 68%
    01:00 -13°C° 0 mm 5 mps 756 mmHg 69%
    02:00 -13°C° 0 mm 5 mps 756 mmHg 70%
    03:00 -13°C° 0 mm 5 mps 757 mmHg 70%
    04:00 -13°C° 0 mm 5 mps 757 mmHg 71%
    05:00 -13°C° 0 mm 5 mps 758 mmHg 71%
    06:00 -13°C° 0 mm 5 mps 758 mmHg 71%
    07:00 -13°C° 0 mm 5 mps 759 mmHg 71%
    08:00 -13°C° 0 mm 5 mps 759 mmHg 70%
    09:00 -12°C° 0 mm 6 mps 760 mmHg 67%
    10:00 -11°C° 0 mm 6 mps 760 mmHg 64%
    11:00 -11°C° 0 mm 6 mps 760 mmHg 60%
    12:00 -10°C° 0 mm 6 mps 760 mmHg 60%
    13:00 -10°C° 0 mm 6 mps 760 mmHg 60%
    14:00 -10°C° 0 mm 6 mps 760 mmHg 60%
    15:00 -10°C° 0 mm 6 mps 761 mmHg 62%
    16:00 -10°C° 0 mm 6 mps 761 mmHg 64%
    17:00 -10°C° 0 mm 6 mps 761 mmHg 66%
    18:00 -11°C° 0 mm 5 mps 762 mmHg 68%
    19:00 -11°C° 0 mm 5 mps 762 mmHg 71%
    20:00 -11°C° 0 mm 5 mps 763 mmHg 73%
    21:00 -12°C° 0 mm 5 mps 763 mmHg 73%
    22:00 -11°C° 0 mm 4 mps 764 mmHg 73%
    23:00 -11°C° 0 mm 4 mps 764 mmHg 73%

    23 February, Saturday

    Time Temperature Precipitation Wind Pressure Humidity
    00:00 -12°C° 0 mm 4 mps 764 mmHg 75%
    01:00 -12°C° 0 mm 4 mps 764 mmHg 78%
    02:00 -13°C° 0 mm 3 mps 765 mmHg 80%
    03:00 -13°C° 0 mm 3 mps 765 mmHg 82%
    04:00 -13°C° 0 mm 3 mps 765 mmHg 84%
    05:00 -13°C° 0 mm 2 mps 765 mmHg 86%
    06:00 -13°C° 0 mm 2 mps 765 mmHg 86%
    07:00 -13°C° 0 mm 2 mps 765 mmHg 87%
    08:00 -13°C° 0 mm 2 mps 765 mmHg 87%
    09:00 -12°C° 0 mm 2 mps 765 mmHg 81%
    10:00 -10°C° 0 mm 2 mps 765 mmHg 75%
    11:00 -8°C° 0 mm 1 mps 765 mmHg 68%
    12:00 -7°C° 0 mm 1 mps 764 mmHg 65%
    13:00 -8°C° 0 mm 2 mps 764 mmHg 62%
    14:00 -7°C° 0 mm 2 mps 763 mmHg 59%
    15:00 -6°C° 0 mm 1 mps 763 mmHg 62%
    16:00 -6°C° 0 mm 1 mps 763 mmHg 64%
    17:00 -6°C° 0 mm 1 mps 762 mmHg 67%
    18:00 -6°C° 0 mm 1 mps 762 mmHg 69%
    19:00 -6°C° 0 mm 1 mps 762 mmHg 72%
    20:00 -6°C° 0 mm 1 mps 762 mmHg 74%
    21:00 -6°C° 0.2 mm 1 mps 762 mmHg 79%
    22:00 -6°C° 0.2 mm 1 mps 761 mmHg 83%
    23:00 -7°C° 0.2 mm 2 mps 761 mmHg 88%

    24 February, Sunday

    Time Temperature Precipitation Wind Pressure Humidity
    00:00 -6°C° 0 mm 1 mps 761 mmHg 89%
    01:00 -6°C° 0 mm 1 mps 762 mmHg 91%
    02:00 -6°C° 0 mm 1 mps 762 mmHg 92%
    03:00 -6°C° 0 mm 1 mps 762 mmHg 92%
    04:00 -6°C° 0 mm 1 mps 762 mmHg 93%
    05:00 -6°C° 0 mm 1 mps 762 mmHg 93%
    06:00 -6°C° 0 mm 1 mps 762 mmHg 93%
    07:00 -5°C° 0 mm 0 mps 763 mmHg 93%
    08:00 -5°C° 0 mm 0 mps 763 mmHg 92%
    09:00 -4°C° 0 mm 0 mps 764 mmHg 88%
    10:00 -3°C° 0 mm 0 mps 764 mmHg 85%
    11:00 -2°C° 0 mm 1 mps 764 mmHg 81%
    12:00 -1°C° 0 mm 1 mps 764 mmHg 79%
    13:00 -1°C° 0 mm 1 mps 764 mmHg 78%
    14:00 0°C° 0 mm 1 mps 764 mmHg 76%
    15:00 0°C° 0 mm 1 mps 764 mmHg 80%
    16:00 -1°C° 0 mm 1 mps 764 mmHg 83%
    17:00 -1°C° 0 mm 1 mps 764 mmHg 87%
    18:00 -1°C° 0 mm 1 mps 764 mmHg 88%
    19:00 -1°C° 0 mm 1 mps 764 mmHg 90%
    20:00 -2°C° 0 mm 1 mps 764 mmHg 91%
    21:00 -2°C° 0 mm 1 mps 764 mmHg 92%
    22:00 -2°C° 0 mm 1 mps 764 mmHg 93%
    23:00 -2°C° 0 mm 1 mps 763 mmHg 94%

    25 February, Monday

    Time Temperature Precipitation Wind Pressure Humidity
    00:00 -5°C° 0 mm 2 mps 763 mmHg 95%
    01:00 -5°C° 0 mm 2 mps 763 mmHg 95%
    02:00 -5°C° 0 mm 2 mps 762 mmHg 96%
    03:00 -5°C° 0 mm 2 mps 762 mmHg 96%
    04:00 -4°C° 0 mm 2 mps 761 mmHg 96%
    05:00 -4°C° 0 mm 2 mps 760 mmHg 96%
    06:00 -3°C° 0.1 mm 2 mps 760 mmHg 96%
    07:00 -3°C° 0.1 mm 2 mps 760 mmHg 96%
    08:00 -3°C° 0.1 mm 2 mps 760 mmHg 97%
    09:00 -2°C° 0.1 mm 2 mps 759 mmHg 95%
    10:00 -1°C° 0.1 mm 3 mps 759 mmHg 93%
    11:00 0°C° 0.1 mm 3 mps 759 mmHg 91%
    12:00 0°C° 0 mm 3 mps 759 mmHg 87%
    13:00 +1°C° 0 mm 3 mps 759 mmHg 83%
    14:00 +1°C° 0 mm 3 mps 759 mmHg 78%
    15:00 0°C° 0 mm 3 mps 758 mmHg 81%
    16:00 -1°C° 0 mm 2 mps 758 mmHg 83%
    17:00 -1°C° 0 mm 2 mps 758 mmHg 85%
    18:00 -2°C° 0 mm 2 mps 758 mmHg 86%
    19:00 -2°C° 0 mm 2 mps 758 mmHg 88%
    20:00 -2°C° 0 mm 2 mps 758 mmHg 89%
    21:00 -2°C° 0 mm 2 mps 757 mmHg 90%
    22:00 -2°C° 0 mm 3 mps 757 mmHg 91%
    23:00 -2°C° 0 mm 3 mps 757 mmHg 92%
    Show more